Theta_e
314 314 314 314 314 314 313 314 313 313 313 313 312 312 312 311 311 311 310 310 309 308 308 307 307 306 306 305 305 304 304 304 303 303 303 302 302 302 302 302 302 302 302 301 301 301 302 302 302 303 303 304 304 305 306 306 307 307 307 307 307 306 305 306 305 307 310 310 309 308 308 308 308 308 308 307 307 306 305 304 304 304 304 304 304
314 313 313 313 313 313 313 313 313 312 312 312 311 311 311 310 309 308 308 307 306 305 305 304 304 303 303 302 302 301 301 301 301 300 300 300 300 299 299 299 299 299 299 298 298 298 298 298 298 298 299 299 299 300 301 301 302 303 304 305 306 306 305 305 304 304 307 308 308 307 307 307 307 308 307 306 306 305 304 304 304 303 303 303 303
313 313 313 313 313 313 313 312 312 311 311 311 310 309 308 307 306 305 304 304 303 303 302 302 301 301 300 300 299 299 299 298 298 298 298 298 298 297 297 297 297 297 297 297 297 297 297 296 297 296 296 296 296 296 297 297 297 298 299 300 302 303 304 304 303 303 304 306 305 306 306 306 306 306 305 305 305 304 304 304 303 303 304 303 303
313 313 313 313 313 312 312 311 311 310 309 308 308 306 305 304 303 303 303 303 302 302 301 300 299 299 298 298 298 298 297 297 297 297 297 297 297 297 297 297 297 297 296 296 296 296 296 296 296 296 296 296 296 296 296 295 295 295 295 295 296 297 299 301 302 302 302 304 303 303 304 304 305 305 304 303 304 303 303 303 303 303 303 303 303
313 313 312 312 312 311 311 310 309 308 307 306 305 304 303 303 303 303 302 302 301 300 299 298 298 298 297 297 297 297 297 297 297 297 297 297 297 297 296 296 296 296 296 296 296 296 296 296 296 296 296 296 296 296 295 295 295 294 294 294 294 294 294 296 299 301 301 301 302 301 302 303 303 303 303 302 303 303 303 303 303 303 303 302 302
312 312 311 311 310 310 309 308 307 306 305 304 304 303 303 303 303 302 301 300 299 298 298 297 297 297 297 297 297 296 296 296 296 296 296 296 296 296 296 296 296 296 296 296 296 296 296 296 296 296 295 295 295 295 295 295 294 294 294 294 293 293 293 293 294 296 299 299 300 301 300 301 302 302 302 302 302 302 302 302 302 303 302 302 302
311 311 310 310 309 308 307 306 305 304 303 303 303 303 303 302 301 300 299 298 298 297 297 297 297 297 297 296 296 296 296 296 296 296 296 296 296 295 295 295 295 295 295 295 295 295 295 295 295 295 295 295 295 295 294 294 294 294 293 293 293 293 293 293 292 293 295 297 297 298 299 299 300 301 301 301 301 301 301 301 302 302 302 302 301
310 310 309 309 308 306 305 304 303 303 303 303 302 301 300 299 298 298 298 297 297 297 297 297 297 297 297 296 296 296 296 296 296 296 296 295 295 295 295 295 295 295 295 295 295 295 295 295 295 295 295 294 294 294 294 294 293 293 293 293 292 292 292 292 292 292 293 294 295 295 296 297 297 299 300 300 300 301 301 301 301 301 301 301 301
310 309 308 307 306 304 303 303 303 302 302 301 300 299 298 297 298 297 297 297 297 297 297 297 297 297 296 296 296 296 296 295 295 295 295 295 295 295 295 294 294 294 294 295 294 294 294 294 294 294 294 294 294 293 293 293 292 292 293 292 292 292 292 291 291 291 291 293 293 293 295 295 295 297 298 299 299 300 300 300 300 300 301 301 301
308 307 306 305 304 303 302 302 302 301 300 299 298 298 297 297 297 297 297 297 297 297 296 296 296 296 296 296 295 295 295 295 295 294 294 294 294 294 294 294 294 294 293 293 293 293 293 293 293 293 293 293 293 293 292 292 292 292 292 292 292 291 291 291 291 291 291 292 292 292 294 294 294 295 297 297 298 299 299 299 300 300 300 301 301
306 305 304 303 302 302 301 301 301 299 298 298 297 297 297 297 297 297 297 296 296 296 296 296 296 295 295 295 295 295 294 294 294 294 293 293 293 293 293 292 292 292 292 292 292 292 292 292 292 292 292 292 292 292 292 291 292 292 291 292 291 291 291 291 291 290 291 291 292 292 293 293 292 293 295 296 297 298 298 299 299 299 300 300 300
304 303 302 302 301 301 301 300 299 298 298 297 297 297 297 297 297 296 296 296 296 295 295 295 295 295 295 294 294 294 293 293 293 293 292 292 292 292 292 292 292 292 292 291 292 292 292 292 292 292 291 291 291 291 291 291 291 291 290 290 290 290 290 290 290 290 290 291 291 291 291 292 291 292 292 294 296 297 298 298 298 299 299 299 299
302 301 301 301 301 300 299 298 298 297 297 297 297 297 297 296 296 296 296 295 295 295 295 295 294 294 294 294 293 293 293 292 292 291 291 291 291 291 292 292 292 292 292 292 292 292 292 291 291 291 291 291 290 290 290 290 290 290 290 289 289 290 290 290 290 290 290 290 290 290 290 290 291 291 291 293 296 296 297 297 298 298 298 298 299
301 301 300 300 300 299 298 297 297 297 297 297 297 296 296 296 296 295 295 295 295 295 294 294 294 294 293 293 293 292 292 291 291 291 291 291 291 292 292 292 291 291 291 291 291 291 291 291 290 291 291 291 290 289 289 289 289 289 289 289 289 289 289 289 290 290 290 290 290 290 290 290 291 291 291 294 295 295 296 296 297 297 297 297 297
300 300 300 299 298 298 298 297 297 297 297 297 296 296 295 295 295 295 294 294 294 294 294 293 293 293 292 292 292 292 291 291 291 291 291 291 291 291 291 291 291 291 291 291 291 291 290 290 290 290 290 290 290 289 289 289 289 289 289 289 289 289 289 289 290 290 290 290 290 290 290 290 291 292 294 295 295 295 295 295 296 296 296 296 296
299 299 299 298 298 298 298 297 297 297 296 296 295 295 295 294 294 294 294 294 293 293 293 293 292 292 292 292 291 291 291 291 291 291 291 291 291 291 291 291 290 290 291 291 291 290 290 290 290 290 290 290 290 289 289 288 289 289 289 289 289 289 289 289 290 290 290 290 290 290 290 291 291 293 295 295 294 294 295 294 295 295 295 295 295
299 299 298 298 298 298 297 297 297 296 295 295 295 294 294 294 294 294 293 293 293 292 292 292 292 292 291 291 291 291 291 291 291 291 291 291 290 290 290 290 290 290 290 290 290 290 290 290 290 290 290 290 290 290 289 288 288 288 289 289 289 289 289 289 289 290 290 290 290 290 290 291 291 292 293 293 294 294 294 294 294 294 294 294 294
298 298 298 298 297 297 297 296 296 295 295 294 294 294 294 293 293 293 293 292 292 292 292 291 291 291 291 291 291 291 291 291 291 291 291 290 290 290 290 290 290 290 290 290 290 290 290 290 290 290 290 290 290 289 289 288 288 288 288 289 288 288 288 289 289 289 290 290 290 290 290 290 290 291 292 293 294 295 294 294 294 294 293 293 293
298 297 297 297 297 296 296 295 295 294 294 294 293 293 293 292 292 292 292 291 291 291 291 291 291 291 291 291 291 291 291 292 291 290 290 290 289 289 289 289 289 290 290 290 290 290 290 290 290 290 289 288 288 288 288 288 287 288 288 288 288 288 288 288 288 289 289 289 289 289 289 289 290 290 291 292 294 296 295 295 296 294 293 293 293
297 297 296 296 296 295 295 294 294 294 293 293 293 292 292 291 291 291 291 291 291 290 290 291 291 291 291 291 291 291 291 291 291 290 289 289 289 289 289 289 289 289 289 289 289 289 289 290 290 289 288 287 286 286 286 286 286 287 287 287 287 287 287 287 288 288 288 288 289 289 289 289 289 289 290 291 293 295 295 295 296 295 293 293 292
296 296 296 295 295 294 294 294 294 293 293 292 291 291 291 291 291 291 291 291 290 290 291 291 291 291 291 291 291 290 290 290 289 289 289 289 289 289 288 288 288 287 287 288 288 288 288 288 289 288 287 286 285 285 284 285 285 286 286 286 286 286 286 287 287 287 287 288 288 288 288 288 289 290 290 291 293 294 295 295 295 294 293 293 292
295 295 295 294 294 294 294 293 293 292 292 291 291 291 290 291 291 290 290 290 290 290 290 290 290 291 291 291 290 290 289 289 289 289 289 289 288 288 288 287 286 285 285 286 286 286 286 286 287 287 286 285 285 284 284 284 285 285 285 285 286 286 286 286 286 286 286 287 287 288 288 288 289 290 290 291 292 293 294 294 293 293 292 292 291
295 295 294 294 294 294 293 293 292 292 291 291 290 290 290 290 290 290 290 290 290 290 290 290 290 290 290 290 290 289 289 289 289 289 289 288 288 288 288 287 286 284 284 285 285 285 285 285 285 285 284 284 284 284 284 284 284 284 284 285 285 285 285 285 285 285 285 286 286 287 288 288 289 290 290 291 292 292 292 292 291 291 291 291 290
294 294 294 294 294 293 292 292 291 291 290 290 290 290 290 290 290 290 290 290 290 289 289 289 289 289 289 289 289 288 288 288 289 289 288 288 288 288 288 287 286 284 283 283 282 282 282 282 282 282 282 283 283 283 283 283 283 283 283 283 284 284 285 285 285 285 285 286 287 287 288 289 289 290 291 291 291 291 290 290 290 290 290 290 289
294 294 294 294 293 292 291 291 291 290 290 290 290 290 290 290 290 290 289 289 289 289 289 288 288 288 288 288 288 288 288 288 288 289 288 288 288 288 287 287 286 283 281 280 280 280 281 281 281 282 282 282 282 282 282 282 282 282 283 283 284 284 285 285 285 285 286 286 286 287 288 289 289 290 290 290 290 290 290 290 290 289 289 289 289
294 294 293 292 292 291 291 290 290 290 290 290 290 290 290 290 290 289 289 289 288 288 288 287 287 287 288 288 288 288 288 288 288 288 288 288 288 287 287 286 284 282 280 280 280 280 280 281 281 282 282 282 282 282 282 282 282 282 283 284 284 284 285 285 285 286 286 286 286 287 288 288 289 289 289 290 290 289 289 289 289 289 288 288 288
293 293 292 291 291 290 290 290 290 290 290 290 290 290 289 289 289 289 288 288 288 287 287 287 287 287 287 287 288 288 288 288 288 288 288 287 287 287 286 285 283 281 280 279 279 279 280 281 281 281 281 281 282 282 282 282 282 283 283 284 284 285 285 285 286 286 286 286 286 287 288 288 288 289 289 289 289 289 289 289 288 288 288 287 287
292 291 291 291 290 290 290 290 290 290 290 290 289 289 289 289 288 288 287 287 287 287 287 287 287 287 287 287 287 287 288 288 287 286 286 286 285 285 285 284 282 280 279 278 279 279 280 280 280 281 281 281 281 281 282 282 283 283 284 284 285 285 286 286 287 287 286 286 287 287 287 287 288 288 288 288 288 288 288 288 287 287 287 286 286
291 291 291 290 290 290 290 290 290 289 289 289 289 289 288 288 288 287 287 287 287 286 286 286 286 286 286 286 286 286 287 287 287 286 285 284 284 283 283 282 280 278 278 278 279 279 279 279 280 280 280 281 281 281 281 282 283 284 284 285 285 286 286 287 287 287 287 287 287 287 287 287 287 288 288 288 288 287 287 287 287 286 286 285 285
291 291 290 290 290 289 289 289 289 289 289 289 289 288 288 288 287 287 287 287 286 286 286 286 286 286 286 286 286 285 285 285 285 285 285 285 285 285 284 282 280 278 277 278 278 278 278 279 279 279 279 279 280 281 281 282 283 283 284 284 285 285 286 286 287 287 287 287 287 287 287 287 287 287 288 288 287 287 286 286 286 285 285 284 284
290 290 290 289 289 289 289 289 289 289 288 288 288 288 288 288 287 287 287 286 286 286 286 285 285 285 285 286 286 285 285 284 284 284 284 284 284 284 284 284 282 280 277 277 277 277 278 278 278 278 278 279 280 281 281 281 282 282 283 284 284 285 286 286 287 287 287 287 287 287 287 287 287 287 287 287 287 286 285 285 284 284 284 284 284
290 289 289 289 289 289 289 289 288 288 288 288 288 288 288 288 288 287 287 286 286 286 285 285 285 285 285 285 285 285 286 285 285 284 284 283 283 283 283 283 282 280 278 277 276 276 276 277 277 277 278 279 280 280 280 280 281 282 283 283 284 285 285 286 286 286 286 286 286 286 286 286 287 287 287 287 286 285 285 284 283 283 283 283 283
289 289 289 289 289 288 288 288 288 288 288 287 287 287 287 287 287 287 287 286 286 285 285 285 285 285 284 284 283 284 284 285 285 285 284 284 283 282 281 281 280 279 277 276 276 275 276 276 277 278 278 279 279 279 279 280 281 281 282 283 284 284 284 285 285 285 286 286 286 286 286 286 286 287 286 286 285 284 284 284 283 282 282 282 282
289 289 289 288 288 288 288 288 287 287 287 287 287 287 287 287 286 286 287 286 286 286 285 284 284 284 284 283 283 282 282 283 283 283 284 284 283 282 280 279 279 279 277 275 275 275 276 276 277 278 278 278 278 279 279 280 281 281 282 282 283 284 284 284 285 285 285 286 286 286 286 286 286 286 286 285 284 283 283 283 282 282 282 282 282
289 288 288 288 288 288 287 287 287 287 287 287 287 286 286 286 286 286 286 286 285 285 285 284 283 283 283 283 283 283 282 282 281 281 281 281 281 280 279 279 279 279 277 276 275 275 275 276 276 277 277 277 278 279 280 280 281 281 281 282 283 283 284 284 284 285 285 285 285 285 286 286 286 286 285 285 284 283 283 282 282 281 281 281 282
288 288 288 287 287 287 287 287 287 287 287 287 286 286 286 286 285 285 285 284 284 284 284 284 284 283 282 282 282 283 283 283 282 281 280 279 279 278 277 277 278 277 277 276 276 275 275 275 275 276 277 278 279 280 280 280 281 281 281 282 282 283 283 284 284 284 285 285 285 285 285 286 285 285 284 284 283 283 282 281 281 281 281 281 282
288 287 287 287 287 287 287 287 286 286 286 286 286 286 285 285 285 284 284 283 283 283 283 283 283 283 283 282 282 282 282 283 282 281 279 278 278 277 277 277 277 277 277 277 276 275 275 275 276 277 278 279 280 280 280 280 280 280 281 282 282 282 283 283 284 284 284 285 285 285 285 285 285 284 284 283 282 281 281 281 280 280 280 280 281
287 287 287 287 287 286 286 286 286 286 286 286 285 285 285 284 284 283 283 282 282 282 282 281 281 281 282 282 282 282 282 282 282 282 280 279 278 278 278 277 277 277 277 277 276 275 276 277 277 278 279 280 280 280 280 279 279 280 280 281 282 282 283 283 283 284 284 284 285 285 284 284 284 283 283 282 282 281 281 280 280 280 280 280 281
287 287 287 286 286 286 286 286 286 286 285 285 285 284 284 283 283 282 282 282 281 281 281 281 280 280 280 280 281 281 281 281 281 281 281 280 279 278 278 278 278 278 277 277 277 276 277 278 278 279 279 279 280 280 279 279 279 280 280 281 281 282 282 282 283 283 283 284 284 284 284 283 283 282 282 281 281 281 281 280 280 280 280 280 281
287 286 286 286 286 286 286 286 286 285 285 284 284 284 283 283 282 282 281 281 281 280 280 280 280 279 279 279 279 279 279 279 279 279 279 279 279 278 278 278 278 278 278 278 278 278 278 279 279 280 279 279 279 280 280 279 279 280 280 281 281 281 281 282 282 282 283 283 283 283 283 283 282 282 281 280 280 280 280 280 280 280 281 281 281
286 286 286 286 286 285 285 285 285 284 284 284 283 283 282 282 281 281 281 280 280 280 280 279 279 279 278 278 277 277 277 277 278 278 278 278 278 278 278 278 278 278 279 279 279 279 279 280 280 280 279 279 279 279 280 280 280 280 280 281 281 281 281 281 281 281 282 282 282 282 282 282 281 281 280 280 280 280 280 280 280 281 281 282 281
286 285 285 285 285 285 285 285 284 284 283 283 283 282 282 281 281 280 280 280 279 279 279 279 279 278 278 277 277 277 276 277 277 277 277 277 277 277 277 277 278 278 278 278 278 279 279 280 280 280 279 279 280 280 279 279 279 279 279 280 280 280 280 280 280 280 281 281 281 281 281 281 281 280 280 280 280 279 279 280 281 282 281 281 281
285 285 285 285 285 285 284 284 283 283 283 282 282 281 281 281 280 280 279 279 279 279 279 279 278 278 278 277 277 277 277 276 276 276 276 276 276 277 277 277 277 278 278 278 278 278 279 279 279 279 279 279 280 280 279 279 279 279 279 279 280 279 279 279 279 279 280 280 280 281 281 280 280 280 280 280 279 279 279 280 281 281 281 280 280
285 284 284 284 284 284 284 283 283 282 282 282 281 281 280 280 280 279 279 279 278 278 278 278 278 278 277 277 277 277 277 277 276 276 276 276 276 276 276 277 277 277 277 278 278 278 278 278 278 279 279 279 280 280 280 280 279 279 279 279 279 279 279 279 279 279 279 279 280 280 280 280 280 280 280 279 279 279 280 281 281 281 281 280 280
284 284 284 284 283 283 283 282 282 282 281 281 280 280 280 279 279 279 278 278 278 277 277 277 277 277 277 277 277 277 276 276 276 276 275 275 275 275 276 276 276 276 277 277 277 277 277 277 277 278 278 279 279 280 280 280 280 279 279 279 279 279 279 279 279 278 278 278 279 279 280 280 280 280 280 279 280 280 281 281 281 281 281 280 279
284 284 283 283 282 282 282 281 281 281 280 280 280 280 279 279 278 278 278 277 277 276 276 276 276 276 276 276 276 276 276 276 276 276 275 275 275 275 275 275 275 276 276 276 276 276 276 276 276 276 277 278 278 279 280 280 280 280 280 280 279 279 280 280 280 279 279 278 279 279 280 280 280 280 280 280 280 281 281 281 281 281 280 279 279
283 283 283 282 282 281 281 281 280 280 280 280 279 279 279 278 278 277 277 276 276 276 275 275 275 274 274 274 275 275 275 275 275 275 275 275 275 275 275 275 275 275 275 275 275 276 276 275 275 275 276 276 277 278 279 280 280 281 281 281 281 281 281 281 281 281 280 280 279 280 280 281 281 281 281 281 281 281 282 281 281 280 280 279 278
283 283 282 282 281 281 281 280 280 280 279 279 279 279 278 277 277 276 276 275 275 275 275 274 274 273 273 273 274 274 274 274 275 275 275 275 275 275 275 275 275 275 275 275 275 275 275 275 275 275 275 275 276 277 278 279 279 280 281 281 282 282 282 282 282 282 282 281 281 281 281 281 281 281 281 281 281 281 281 281 280 280 279 279 278
282 282 282 281 281 281 280 280 279 279 279 279 278 278 277 277 276 276 275 275 274 274 274 273 273 273 273 273 273 273 273 273 274 274 275 275 275 275 275 275 275 274 274 274 275 275 275 275 275 275 275 275 275 276 277 278 278 279 279 280 281 281 281 281 281 281 281 281 281 281 281 281 281 281 281 281 281 281 280 280 280 279 279 278 277
281 281 281 281 280 280 280 279 279 279 279 278 278 277 276 276 276 275 274 274 274 273 273 273 273 272 272 272 272 272 272 272 273 273 274 274 275 275 275 275 275 275 274 274 274 274 275 275 275 275 275 275 275 276 276 277 277 277 278 278 279 280 280 280 280 280 280 280 280 281 281 281 281 281 281 281 280 280 280 279 279 278 278 277 277
279 280 280 280 280 279 279 279 278 278 278 277 277 276 276 275 275 274 274 274 273 273 273 273 272 272 272 272 272 272 272 271 272 272 272 273 274 274 275 275 275 275 274 274 274 274 274 275 275 275 275 275 275 276 276 277 277 277 276 277 278 278 279 279 279 279 280 280 280 280 280 280 280 280 280 280 279 279 279 279 278 278 277 277 276
Wind_Speed
14 14 13 12 11 10 9 8 7 6 5 5 4 3 2 2 2 2 3 4 5 6 7 8 9 10 11 11 12 13 13 14 15 16 17 17 18 19 20 21 21 22 23 23 24 25 26 27 27 27 27 29 29 29 30 29 30 32 32 33 34 34 36 38 45 53 57 55 54 54 52 52 53 53 51 51 49 47 46 45 44 43 43 44 43
14 13 13 12 11 10 9 8 8 7 6 6 5 4 3 2 2 2 3 4 5 7 7 8 9 10 11 11 12 13 14 15 16 17 18 19 19 20 21 22 23 24 24 25 26 26 28 29 28 29 29 30 31 30 31 31 31 32 32 32 34 34 33 35 41 48 55 57 55 55 53 52 53 53 51 51 51 49 49 48 47 46 46 45 45
15 14 13 12 11 10 10 9 9 8 7 6 5 4 4 3 3 4 4 5 6 7 7 8 9 10 11 12 13 14 15 17 18 19 20 21 22 22 23 25 25 27 27 28 29 29 31 32 32 32 33 34 35 34 34 34 34 35 35 34 35 36 34 34 37 43 50 56 56 55 54 52 53 53 52 52 52 51 51 52 51 50 48 46 46
14 14 13 12 12 12 11 10 10 9 8 7 6 5 5 4 4 4 4 5 6 7 8 9 10 11 12 13 15 16 17 19 20 21 22 24 25 25 26 28 28 30 31 32 33 34 35 36 36 37 38 39 40 39 39 39 39 39 39 39 38 39 38 37 37 40 45 52 57 57 54 53 54 54 52 52 53 53 53 54 53 52 51 48 47
14 14 13 13 13 13 12 11 11 9 8 7 6 5 4 3 3 3 4 5 7 8 9 10 11 12 14 15 16 17 19 21 22 23 24 26 27 28 29 31 31 33 34 35 36 37 38 39 39 40 41 42 43 43 43 43 43 43 42 42 41 41 41 40 40 41 43 49 55 58 56 54 55 55 53 52 53 54 54 54 54 54 53 51 49
15 15 14 14 14 13 13 12 11 10 8 7 6 5 3 1 2 4 5 7 8 9 10 12 13 14 15 16 17 19 20 22 23 24 26 27 29 30 31 33 34 35 36 37 38 39 40 41 42 42 43 44 45 45 46 46 46 46 46 45 44 43 43 43 43 43 44 48 53 56 57 56 56 56 54 51 52 53 54 55 55 55 55 53 51
16 15 15 15 14 14 13 12 11 9 8 6 4 2 1 2 4 5 7 8 9 10 12 13 14 15 16 17 19 20 21 23 24 25 27 28 30 31 33 34 35 36 37 38 39 40 42 42 43 44 45 46 47 48 48 49 49 50 49 47 47 46 46 46 44 44 45 47 50 54 56 57 57 56 54 52 53 54 54 54 56 56 54 53 52
17 16 16 15 15 14 13 12 10 8 6 4 2 1 2 4 5 6 8 9 10 11 13 14 15 16 18 19 20 21 22 23 25 26 28 29 31 33 34 36 37 39 40 40 41 42 44 45 46 47 47 48 49 50 50 51 52 53 52 50 49 48 48 47 46 46 46 47 50 52 54 56 58 56 54 53 54 55 53 53 55 55 54 53 53
17 17 16 16 15 14 13 11 8 6 4 2 1 2 3 5 6 7 8 10 11 12 14 15 16 17 18 19 20 21 22 23 25 27 29 31 33 35 37 38 40 42 43 44 45 46 47 48 49 50 50 51 51 52 52 52 53 54 54 53 51 50 50 49 48 47 47 47 50 51 52 55 57 55 53 52 53 54 53 52 54 55 54 54 54
18 18 17 16 15 13 11 9 7 4 2 1 1 3 4 5 7 8 9 11 12 13 15 16 17 18 19 20 21 21 23 24 26 28 30 33 35 38 40 42 43 45 47 49 50 51 51 52 53 53 53 54 54 54 54 54 54 55 55 54 53 52 51 51 50 48 47 48 50 51 51 54 57 55 53 54 53 51 51 52 54 54 53 53 54
19 18 17 16 14 12 10 7 5 3 1 1 2 4 5 6 8 9 10 12 13 14 16 17 18 20 21 22 23 24 25 26 28 30 32 34 37 40 42 44 46 47 49 51 53 55 55 56 56 57 57 57 57 57 57 57 57 56 56 56 54 52 51 51 51 50 48 48 50 51 52 55 57 55 54 55 52 50 50 51 51 51 51 51 53
19 18 16 15 13 10 8 6 4 2 1 2 3 5 7 8 9 11 12 13 14 16 17 19 20 22 24 25 27 28 29 30 32 33 35 36 38 41 43 46 48 50 51 53 55 57 58 59 59 60 60 59 60 60 60 60 59 58 58 58 56 54 52 50 50 50 49 48 49 51 53 55 57 56 54 54 52 49 48 48 50 51 50 50 51
19 17 15 13 11 9 6 5 3 1 2 3 5 7 8 10 11 12 14 15 17 18 19 21 23 24 27 29 30 32 33 34 35 36 38 39 41 43 46 48 50 52 54 55 57 58 60 61 62 63 63 62 62 61 61 61 61 60 60 59 58 57 54 52 51 49 48 48 50 52 53 54 55 55 53 51 49 48 47 47 48 50 50 51 52
18 16 14 12 10 8 6 4 2 2 3 5 6 8 9 11 13 14 16 17 18 20 22 24 25 27 29 32 34 35 36 36 38 39 41 43 45 47 49 51 53 54 55 56 58 59 60 60 62 64 65 64 64 62 60 61 61 61 60 60 59 58 56 55 53 50 48 48 50 53 53 52 53 53 51 49 49 49 49 49 49 50 51 52 51
18 15 13 11 9 7 5 3 2 3 4 6 8 9 11 13 14 15 17 19 21 23 24 27 29 30 32 34 37 38 38 39 41 43 44 46 47 49 51 52 53 55 56 57 57 59 59 60 61 63 65 66 66 62 59 58 58 59 60 60 59 58 58 58 55 51 50 50 51 53 52 51 50 50 48 47 47 47 47 49 49 51 51 50 48
17 15 12 10 8 6 5 3 3 4 5 7 9 10 12 13 15 17 19 21 23 25 27 29 32 33 35 36 38 40 40 41 43 44 46 47 48 50 51 52 53 55 56 57 58 59 59 59 61 62 64 66 66 64 60 55 54 55 57 58 59 59 60 59 55 51 51 52 52 52 52 50 49 48 46 44 43 42 44 47 49 49 49 48 48
16 14 12 10 8 6 4 3 4 5 6 8 10 11 13 15 17 19 21 23 25 27 30 32 33 35 36 38 39 41 42 43 43 44 45 46 47 49 50 52 53 55 56 58 59 59 60 60 60 62 64 65 65 63 59 54 50 51 53 54 56 59 62 61 55 51 50 50 50 50 50 48 47 46 44 42 39 39 42 47 48 48 47 47 47
16 13 11 9 7 5 4 4 4 6 7 9 11 13 15 17 19 21 24 26 28 29 31 33 33 35 36 38 39 42 43 43 44 45 46 47 47 48 50 52 54 56 57 59 60 60 60 60 60 61 62 62 62 61 58 53 49 49 50 51 54 59 63 61 55 52 51 49 48 49 48 47 46 45 43 40 36 35 39 44 46 45 46 46 46
14 12 10 8 6 4 4 4 5 7 8 10 12 14 16 18 20 22 24 27 29 30 32 33 34 35 36 38 39 41 43 45 46 46 47 47 47 48 50 52 54 55 57 59 61 62 62 62 62 61 60 58 57 55 53 50 48 48 49 50 53 57 59 57 53 52 52 51 50 50 48 48 47 46 44 40 36 33 36 40 43 44 46 46 44
13 11 8 7 5 4 3 4 6 8 9 11 13 15 17 19 21 23 25 27 29 30 32 34 35 36 37 38 40 42 45 47 47 48 47 47 47 48 49 51 53 54 57 60 62 64 64 65 65 63 59 56 52 50 49 48 48 48 49 50 52 53 54 53 52 52 52 52 52 51 50 49 48 47 46 43 39 36 36 38 42 43 44 44 43
12 10 7 6 4 3 4 6 8 9 10 12 13 16 18 20 23 25 26 28 29 31 32 34 36 37 39 40 42 44 45 47 48 48 48 47 47 48 49 51 52 52 55 58 60 61 62 64 65 63 60 57 55 52 51 49 47 47 49 49 50 50 49 49 50 51 51 52 52 51 51 50 48 47 47 45 42 40 38 40 41 42 41 41 41
11 8 7 5 4 4 5 7 8 9 11 13 14 16 18 21 23 25 27 28 30 31 33 35 37 39 41 43 44 45 46 46 47 48 48 48 48 49 50 51 50 49 50 55 58 58 59 61 62 61 59 58 56 53 50 47 46 48 49 49 48 47 46 47 48 49 50 51 51 51 51 49 48 47 46 45 44 43 42 42 41 39 37 37 37
10 8 6 4 4 5 7 8 9 10 12 13 15 17 19 21 23 25 27 29 31 33 35 37 39 42 44 45 46 46 46 47 47 48 48 49 50 51 52 52 51 47 47 52 55 56 58 59 59 58 56 54 53 51 50 50 51 51 51 49 48 48 47 48 48 48 49 49 48 49 49 48 46 46 46 46 45 43 42 42 40 37 34 33 32
9 7 5 4 5 6 7 8 9 10 12 13 16 18 20 22 23 25 27 30 32 34 36 38 40 42 45 47 48 48 48 48 48 48 49 50 52 53 54 54 53 50 48 49 51 53 54 54 52 52 51 51 51 51 53 56 56 53 51 50 48 47 46 46 46 45 45 44 44 45 46 45 45 45 45 45 43 42 41 40 38 35 33 31 30
8 6 5 5 6 6 6 7 9 10 12 14 17 19 21 22 24 26 28 31 33 35 37 38 40 42 44 47 49 50 50 49 49 49 50 51 53 54 55 56 54 50 47 46 48 49 48 46 46 48 49 51 53 55 57 58 58 56 53 50 48 46 44 43 43 42 41 40 41 42 44 45 45 45 44 42 41 40 39 38 36 34 31 30 30
8 7 7 6 6 6 6 7 9 11 13 15 17 19 21 23 25 27 29 31 33 34 36 38 39 41 43 45 47 49 50 50 49 49 50 52 54 55 56 56 54 51 48 47 48 48 46 45 46 49 51 53 54 56 56 56 56 55 52 49 47 46 43 42 42 40 38 39 41 42 42 43 44 44 43 41 40 40 38 36 33 31 29 29 29
9 8 7 6 6 6 7 8 10 11 13 15 17 19 21 23 25 27 29 31 33 34 36 37 39 41 43 44 45 47 49 49 49 49 51 53 55 57 57 57 55 53 51 49 49 48 48 48 48 49 50 52 53 53 53 52 51 50 49 47 45 44 42 42 40 37 38 41 42 41 40 40 41 42 42 40 39 38 36 33 30 28 28 28 28
9 8 7 7 7 7 8 9 10 12 13 15 17 19 21 23 25 27 29 31 33 34 36 36 37 39 41 42 44 46 48 48 48 48 50 52 53 55 56 56 54 52 50 49 48 48 50 50 50 51 51 52 52 52 51 50 50 50 49 48 46 44 42 40 37 37 39 42 41 40 39 39 40 40 40 39 37 35 33 30 27 26 27 27 27
9 8 8 8 8 8 9 10 11 12 14 16 17 19 22 24 25 27 28 29 31 32 34 35 35 37 39 40 41 44 46 48 47 47 48 49 50 51 52 51 48 47 46 46 46 48 50 50 49 49 48 48 49 50 50 51 53 52 50 48 47 45 43 39 37 39 41 41 40 39 39 38 39 39 38 37 35 33 30 28 26 26 26 28 27
10 9 9 8 8 9 10 11 12 14 15 16 18 19 21 23 25 27 28 29 30 30 31 33 34 36 38 38 38 40 42 44 45 46 48 49 50 52 52 49 45 42 42 42 43 45 46 45 45 44 44 45 47 49 51 52 52 51 50 48 47 45 43 40 38 39 41 40 39 39 39 38 38 38 37 35 33 31 28 26 26 26 27 29 28
11 10 9 9 9 10 11 12 13 14 16 18 19 21 22 23 24 26 27 29 30 30 31 32 33 34 36 37 38 38 39 41 42 43 44 45 47 48 50 50 47 43 40 39 40 41 41 42 43 44 45 45 46 47 50 52 51 50 49 48 47 44 42 39 38 38 40 40 39 39 39 38 37 37 36 34 32 29 27 25 26 27 28 29 29
10 9 9 10 10 11 12 12 13 15 16 18 20 23 25 26 27 28 28 29 30 30 31 32 33 34 34 36 38 39 41 42 43 43 43 43 43 43 44 45 45 42 39 37 37 38 39 41 43 45 46 47 47 48 50 51 50 50 49 49 47 44 41 40 40 40 40 41 40 39 39 38 37 36 35 33 30 28 27 26 27 28 29 30 30
10 10 11 12 12 12 12 12 13 15 17 19 21 23 26 28 29 31 31 31 31 31 30 31 32 33 34 35 37 39 41 42 43 44 44 44 43 43 42 42 41 39 38 37 38 40 41 42 43 45 46 47 49 50 51 50 49 49 49 48 47 45 43 42 41 40 40 40 40 39 38 37 36 34 33 31 29 27 27 27 28 29 30 31 32
12 13 13 13 13 12 12 12 13 15 17 20 22 24 25 27 29 31 33 34 34 35 33 33 33 34 35 36 37 38 40 41 42 43 43 44 44 43 42 42 41 40 38 37 39 41 42 43 45 46 46 48 50 51 51 50 49 48 47 47 47 46 45 43 41 40 40 40 39 38 37 35 34 33 31 29 28 27 27 27 29 31 32 33 34
15 15 14 13 12 11 11 12 14 16 18 20 22 23 25 26 28 29 31 33 35 36 36 36 35 35 36 37 38 39 39 40 41 41 41 41 42 42 43 44 45 45 43 41 41 41 41 42 44 46 49 50 50 49 49 48 46 45 45 46 46 46 44 43 41 40 39 39 38 37 34 32 32 31 30 29 28 27 27 28 29 31 33 34 34
17 16 14 13 12 11 11 13 14 16 18 19 21 22 24 25 27 28 29 30 32 34 36 37 37 36 36 36 38 39 39 40 41 41 40 40 40 40 41 44 45 46 45 44 42 41 40 41 43 46 48 47 46 45 44 43 42 43 44 44 44 43 42 40 39 38 37 36 36 34 32 30 30 29 28 27 26 26 27 27 29 31 33 33 34
17 16 14 12 11 11 11 13 14 16 17 19 20 22 23 24 25 26 27 29 30 32 34 35 37 38 39 38 39 40 40 40 41 40 39 39 39 39 39 40 41 43 44 43 41 40 41 42 43 43 42 41 41 41 40 40 41 43 43 42 41 40 38 37 35 34 33 34 33 31 30 28 27 27 26 25 25 25 26 27 29 30 31 32 33
17 15 13 11 11 11 12 13 14 16 17 19 20 21 22 23 24 25 26 27 28 30 32 33 35 37 39 40 40 41 41 41 42 41 41 40 40 40 40 40 39 39 40 40 40 39 40 41 40 39 37 37 37 38 38 39 40 40 40 40 39 37 35 34 33 33 32 31 30 29 27 26 25 25 25 24 25 25 25 26 28 29 31 32 34
16 14 12 12 11 12 12 14 15 16 17 18 19 20 21 22 23 24 24 26 27 28 29 31 32 34 36 38 39 41 42 42 43 42 42 41 40 40 40 41 40 39 38 39 39 38 38 38 37 35 35 35 36 36 37 38 39 39 39 39 37 36 34 34 34 33 31 29 27 26 24 23 23 22 22 23 23 24 24 26 27 29 31 33 34
15 14 13 12 12 13 13 14 15 15 16 17 18 19 20 21 22 23 23 25 26 27 27 29 30 31 32 34 36 38 40 41 40 40 40 40 40 40 40 40 39 38 38 37 37 37 38 37 36 35 35 35 35 35 36 37 38 38 37 36 35 34 33 32 32 31 29 26 24 22 21 21 20 20 20 20 21 22 23 24 27 28 30 32 33
15 14 13 13 13 13 13 14 14 15 15 16 17 18 19 20 21 22 22 23 25 26 26 27 28 29 30 31 32 33 34 36 37 37 36 36 37 37 38 38 37 37 36 36 36 37 37 36 35 34 35 35 35 35 36 36 36 37 36 35 33 32 31 30 30 29 26 23 21 19 18 18 18 18 18 19 20 21 22 24 27 28 29 30 29
15 14 14 14 13 13 13 13 14 14 15 16 17 18 18 19 19 20 21 22 24 25 26 27 28 28 28 29 30 31 31 32 33 34 34 34 33 34 35 36 35 35 34 35 35 36 36 35 35 34 34 35 35 35 35 35 35 35 35 34 32 31 29 28 27 26 24 21 18 17 16 15 15 15 16 18 19 20 22 25 27 27 27 27 25
16 15 15 14 14 13 13 13 13 14 15 15 16 16 17 17 18 19 21 22 23 25 26 28 28 28 28 29 29 30 31 31 32 32 32 32 32 32 33 34 34 33 32 32 34 34 35 36 36 35 35 34 34 33 33 32 33 33 33 32 31 29 28 27 25 24 22 19 16 14 13 13 13 14 15 17 17 20 24 26 26 25 25 25 24
16 16 15 14 14 13 13 13 13 14 14 15 15 15 16 17 18 19 20 22 23 25 26 27 28 29 29 29 29 30 31 31 31 31 31 32 31 31 31 32 32 32 31 31 32 33 34 35 36 36 35 34 32 32 31 29 29 29 29 29 29 27 25 24 23 21 19 17 14 13 12 11 11 12 13 15 17 20 24 25 24 24 25 24 23
17 16 15 14 13 12 12 12 13 13 14 14 14 15 16 17 18 19 21 23 24 25 26 27 27 28 28 28 28 29 29 30 30 31 31 31 31 31 30 30 31 32 32 32 32 33 33 34 34 35 35 34 31 30 29 27 26 25 25 26 26 24 22 21 19 17 15 14 12 11 11 10 9 10 12 14 16 19 21 22 22 23 23 21 21
17 16 14 13 12 12 12 12 13 13 14 14 15 15 16 17 18 20 21 23 24 25 26 26 26 26 27 27 27 27 27 28 29 30 30 30 30 30 30 30 30 30 31 32 33 33 32 31 31 32 33 32 30 29 28 26 24 22 23 24 23 21 19 18 16 14 12 11 9 8 8 7 8 8 10 12 15 17 19 20 21 20 19 18 18
17 15 14 13 12 12 12 12 13 14 14 15 16 16 17 18 19 20 21 22 23 24 25 25 25 25 25 26 26 26 26 26 27 28 29 30 30 30 29 29 29 29 29 30 31 32 31 30 29 29 29 30 29 29 28 26 24 22 22 23 22 21 19 17 15 13 11 9 7 6 5 5 5 7 10 13 16 17 18 18 18 17 16 15 16
16 15 14 13 12 12 12 13 13 14 15 16 16 17 18 19 20 20 21 21 22 22 23 23 23 23 24 25 25 25 25 26 26 26 27 28 29 29 29 28 28 28 27 28 29 30 30 30 28 27 28 28 28 27 26 25 24 22 22 22 21 21 19 17 15 13 12 9 7 4 2 2 5 8 11 12 13 14 15 15 16 15 14 14 15
16 15 14 13 12 12 13 13 14 15 16 17 17 18 18 19 19 19 20 20 20 20 21 21 21 22 23 24 24 25 25 25 25 25 25 26 27 27 28 28 27 27 26 26 26 27 28 28 28 27 27 27 27 25 23 22 22 22 22 21 19 18 16 15 14 13 11 10 8 5 2 2 5 8 10 11 11 12 13 14 14 14 13 14 14
16 15 14 13 13 13 13 14 15 16 17 17 18 18 18 18 18 18 18 19 19 19 19 20 20 21 22 23 24 25 25 25 25 25 25 25 25 26 26 27 26 26 26 25 24 24 25 26 26 26 25 25 25 24 23 21 20 21 21 19 17 15 14 13 12 10 10 9 8 6 4 3 5 8 9 10 11 11 12 12 12 13 13 14 15
16 14 14 13 13 14 14 15 15 16 17 17 17 18 17 17 17 17 17 18 19 19 20 21 21 21 22 23 24 24 25 25 25 25 25 25 25 25 25 26 26 26 25 24 24 23 23 23 24 24 24 23 22 22 22 20 20 20 20 18 15 13 12 10 9 8 7 7 8 7 6 5 5 7 8 9 10 10 11 11 12 12 13 13 14
Wind_Direction
173 177 179 179 181 180 181 183 181 182 177 168 164 154 143 119 80 41 20 13 8 8 6 4 2 358 356 354 352 351 348 346 346 344 343 341 339 337 335 334 332 331 330 329 328 326 324 323 323 324 322 318 318 317 316 315 312 309 305 299 294 286 281 277 274 282 293 296 293 293 295 295 295 296 296 297 297 297 296 295 294 293 291 290 289
178 179 179 178 178 178 177 175 170 168 162 160 161 152 144 123 86 54 35 28 20 17 11 5 2 357 354 352 350 348 346 345 343 341 339 338 336 335 333 332 330 329 329 328 327 326 323 322 323 323 320 317 317 317 316 316 313 312 310 306 302 298 289 281 276 278 288 296 297 294 295 296 296 297 297 297 298 298 296 294 293 292 292 289 286
176 177 177 176 175 173 170 167 164 164 163 161 157 145 131 106 83 62 44 33 21 13 6 360 357 354 352 349 347 346 345 344 342 340 338 336 336 335 334 333 332 330 329 328 328 326 324 324 324 324 322 319 319 319 318 317 316 313 313 311 309 307 303 294 284 280 285 295 299 296 296 296 296 297 297 296 296 295 294 294 294 294 294 291 288
175 176 177 174 172 168 166 164 162 162 159 153 144 134 120 100 82 59 39 24 10 3 358 356 355 352 350 348 347 346 345 343 342 340 338 336 335 334 332 331 330 329 328 328 327 326 324 323 323 323 322 320 319 320 319 318 318 315 314 314 312 310 308 302 293 288 286 291 297 299 297 295 295 296 295 294 295 295 294 295 296 297 297 295 293
175 175 175 172 168 166 164 161 159 158 154 149 142 132 120 102 79 38 16 6 0 359 357 356 354 351 350 348 347 347 344 342 340 338 337 335 333 332 331 330 329 328 327 326 325 324 322 321 321 321 320 318 317 317 318 316 316 315 313 313 313 310 308 304 299 295 289 288 294 298 297 295 295 297 295 293 294 295 295 295 296 297 296 295 294
175 172 172 170 167 165 163 160 159 159 154 150 145 137 128 84 27 6 2 2 360 359 357 354 352 350 349 348 346 345 343 341 339 337 336 333 332 331 330 328 327 325 324 323 322 321 319 318 317 317 316 315 314 314 315 314 313 313 312 312 312 310 308 305 302 299 293 290 292 295 296 296 294 295 294 293 292 292 293 294 295 295 293 292 294
174 173 172 171 169 166 164 163 161 160 157 154 149 136 82 14 8 3 1 1 358 354 352 350 348 347 345 344 342 341 340 338 335 334 333 331 329 328 326 324 323 321 320 319 317 316 315 314 313 313 313 312 312 312 312 312 312 311 311 311 311 309 307 305 303 300 295 292 292 292 294 295 294 292 293 293 291 290 290 291 292 294 293 292 294
176 175 174 172 171 168 165 164 162 161 159 152 134 64 25 10 6 3 359 355 350 348 346 344 343 342 339 338 337 336 335 333 331 330 329 328 326 324 323 321 319 318 316 315 314 313 312 311 310 310 310 309 309 309 310 311 311 310 309 310 310 308 306 304 302 299 296 292 291 291 292 293 293 291 291 290 288 288 290 289 289 292 292 292 293
178 176 175 174 172 169 166 165 163 160 153 131 75 23 13 5 360 356 351 346 344 342 341 339 338 336 335 333 332 332 332 331 330 329 328 326 324 322 321 320 319 317 315 314 313 312 311 310 309 309 309 308 308 308 308 309 310 309 308 309 308 306 304 303 300 297 295 292 290 291 290 289 290 289 287 287 285 286 290 288 285 288 290 290 291
180 177 176 174 171 168 167 166 163 158 147 105 26 7 0 355 350 346 342 341 340 339 338 336 334 332 331 331 330 330 331 330 330 329 328 327 325 323 322 321 320 318 317 316 314 314 313 312 311 311 310 309 309 308 308 308 307 307 306 306 306 304 302 301 298 296 293 290 290 290 287 286 289 288 285 286 286 284 285 284 282 286 287 286 287
180 177 176 173 170 170 169 168 168 165 159 359 353 350 346 342 341 339 338 339 337 336 336 335 334 332 331 331 331 332 333 332 331 331 330 329 328 326 323 322 321 320 319 318 316 316 315 314 313 312 311 311 310 309 308 308 307 306 305 304 303 301 299 297 296 295 293 290 290 290 286 285 290 290 287 287 285 282 281 281 281 282 282 281 282
179 177 175 174 173 173 173 174 175 183 225 331 333 335 336 335 336 336 336 337 336 336 335 334 334 333 332 332 333 333 335 335 335 334 333 332 331 328 324 323 322 320 319 318 317 316 315 314 313 312 311 311 311 310 309 309 308 307 305 304 302 300 297 294 293 293 292 290 289 288 287 287 289 291 289 287 285 282 281 280 279 279 278 277 277
179 178 176 176 176 176 178 182 188 220 294 324 329 331 333 332 333 335 335 336 335 335 335 335 334 334 333 333 333 335 336 337 337 336 335 333 331 328 325 323 321 319 319 317 316 315 314 314 313 312 311 312 311 311 310 310 309 308 306 304 302 300 298 295 292 290 290 288 286 285 287 288 287 289 290 288 283 281 280 279 278 278 277 276 277
179 180 179 179 181 182 186 195 216 278 309 324 329 331 332 332 333 334 334 334 334 334 334 335 335 335 335 334 334 335 337 338 338 336 335 333 330 327 325 323 321 319 319 318 317 316 315 315 314 312 311 311 311 311 310 310 309 308 306 303 301 300 298 295 292 290 288 287 285 284 287 288 286 286 288 286 281 278 278 277 277 278 277 278 281
180 181 182 182 186 190 199 218 253 298 317 325 330 331 331 331 332 333 334 335 336 336 336 336 336 336 336 335 334 334 337 338 337 335 334 332 329 327 324 323 321 320 319 319 318 316 315 315 314 313 312 311 310 311 310 309 307 306 304 302 300 299 297 295 293 290 288 287 286 286 288 288 286 285 285 284 282 280 279 278 278 279 278 279 279
182 183 185 189 193 202 218 246 279 309 323 326 329 331 330 331 333 334 336 337 337 337 337 337 337 336 336 336 334 333 335 336 335 333 332 331 329 327 325 323 322 321 320 320 319 317 315 315 314 313 311 310 310 310 309 307 305 303 301 300 299 297 296 295 294 291 289 289 288 288 288 288 286 284 283 283 283 282 280 279 279 279 277 276 275
185 187 191 196 204 216 235 268 298 316 325 327 329 330 331 333 335 335 336 337 338 338 337 337 337 336 336 336 334 332 333 334 333 333 332 331 330 328 326 325 323 322 321 320 318 316 315 313 312 311 310 309 309 309 308 307 304 302 300 299 298 297 296 297 297 294 291 290 289 289 288 287 285 283 282 281 280 279 277 276 276 275 274 273 272
189 192 196 203 211 226 250 284 308 318 326 329 330 332 333 335 337 338 338 338 339 338 336 335 336 336 334 333 332 331 331 332 333 333 333 333 332 330 328 326 324 323 321 319 317 315 314 313 312 311 309 308 308 307 306 306 304 301 299 298 297 296 296 298 298 296 294 293 291 290 289 288 287 286 284 281 279 276 272 271 273 273 271 269 269
192 195 199 207 217 235 266 296 315 322 328 330 331 333 335 337 339 340 339 338 337 337 336 333 332 332 331 330 330 330 330 331 333 334 334 335 334 331 329 326 324 323 321 319 317 316 316 315 314 312 310 309 308 307 306 305 302 300 298 297 296 295 296 298 298 297 296 295 292 291 290 288 287 287 286 283 278 274 271 271 271 269 267 267 266
193 196 201 209 222 248 278 303 317 323 328 332 334 336 338 339 341 340 338 337 336 334 333 330 329 329 329 330 330 331 332 333 334 335 335 335 333 330 327 326 325 324 322 321 320 319 318 318 316 314 311 309 308 307 305 303 301 299 298 297 295 294 295 296 295 294 294 292 291 290 288 287 286 286 286 285 280 276 273 273 271 269 268 267 264
193 197 203 212 229 259 293 311 320 324 329 334 338 340 341 341 340 338 336 335 333 330 329 328 327 328 329 331 332 334 335 334 334 335 334 333 331 329 328 327 327 326 324 323 321 319 318 317 315 312 310 307 306 305 305 303 302 299 298 296 295 295 295 294 293 292 291 290 289 288 287 286 287 287 286 285 284 282 279 278 276 273 271 270 266
195 200 206 218 243 284 307 315 320 325 331 337 342 343 341 338 336 334 332 330 329 328 329 329 329 330 331 332 333 334 335 334 334 334 334 332 331 331 330 330 329 327 323 321 319 317 315 313 312 311 311 310 310 310 309 307 305 303 301 298 297 297 296 295 294 293 290 288 286 285 285 286 286 286 284 284 286 287 284 282 280 278 276 274 269
199 203 210 233 274 299 306 312 319 326 333 338 339 337 335 333 332 330 329 328 329 330 332 332 332 331 331 332 333 334 334 334 334 334 334 332 331 331 331 330 328 326 322 319 317 316 315 314 314 315 315 314 313 311 309 307 306 304 302 300 298 297 296 296 297 297 295 292 287 284 283 285 286 286 285 284 285 285 284 282 281 280 277 273 268
201 207 226 261 283 292 299 309 319 327 333 333 332 330 330 330 330 329 330 331 332 333 333 333 333 332 332 333 334 334 335 334 335 335 333 331 330 330 330 329 328 327 323 319 317 316 315 314 313 312 311 310 309 308 308 308 308 307 306 305 304 303 300 299 300 300 299 296 292 287 285 285 285 285 286 285 284 283 283 281 280 280 276 272 266
208 223 246 261 269 280 295 310 319 324 326 325 326 327 328 328 329 331 333 334 334 333 333 333 334 334 334 333 334 334 334 333 334 334 332 331 330 330 330 329 329 328 323 319 317 316 311 307 307 308 308 309 311 311 311 312 312 312 311 311 311 309 304 301 301 300 297 297 296 291 287 287 286 285 285 286 285 284 282 280 278 276 273 268 262
219 231 240 247 258 275 292 305 312 316 320 322 325 326 327 329 332 334 334 334 334 334 334 335 335 335 334 333 333 332 332 332 333 333 332 330 331 331 331 331 330 328 324 321 320 318 313 309 310 310 310 311 313 313 313 313 314 313 312 311 310 308 305 302 301 297 295 298 298 294 292 291 290 288 287 287 286 284 281 277 274 270 266 261 253
221 226 233 244 257 273 286 297 305 311 316 320 323 325 328 331 333 334 334 334 335 336 336 337 337 335 334 333 333 331 331 332 334 334 333 333 333 333 332 331 330 329 327 325 324 322 318 315 313 311 310 311 313 313 313 314 314 314 312 310 308 306 303 301 298 295 296 300 299 296 296 295 293 291 289 287 285 282 277 273 268 263 258 252 242
217 223 234 247 261 275 287 295 303 310 315 319 322 326 330 332 334 335 336 337 337 337 337 338 337 335 334 334 333 331 331 332 335 336 336 335 334 333 332 332 331 329 328 326 324 320 316 313 312 311 312 314 315 316 316 316 315 313 312 311 309 307 303 300 297 297 299 300 298 297 298 297 295 293 290 286 283 278 271 265 260 255 249 241 231
220 230 242 253 267 278 287 295 304 310 316 320 326 329 332 333 334 336 337 337 337 337 337 337 336 335 334 335 336 334 332 333 336 338 338 336 334 332 332 331 329 327 326 325 322 317 315 315 316 317 319 320 320 321 320 319 318 316 314 313 313 310 305 299 297 299 300 299 296 297 298 298 297 293 288 283 279 273 265 257 251 245 237 229 221
228 238 247 257 268 278 288 298 307 313 318 323 327 330 332 333 334 335 336 337 337 338 338 337 336 335 334 335 336 335 334 335 337 338 337 336 334 333 331 329 328 328 327 325 321 318 318 320 321 323 324 324 323 323 322 321 320 319 318 317 317 315 309 302 299 300 301 300 298 297 298 298 296 291 285 280 275 267 258 249 242 236 228 220 211
233 241 251 262 273 284 294 303 310 315 320 324 326 328 330 331 332 334 334 335 336 336 338 338 337 337 335 333 333 334 335 337 339 339 338 337 334 332 330 328 328 330 329 326 322 320 322 324 324 324 324 324 322 321 321 321 321 320 320 319 319 319 314 307 304 305 304 302 300 298 297 296 294 289 283 277 270 261 250 238 231 225 218 214 208
238 249 261 271 279 287 294 302 309 315 321 325 327 329 329 329 330 332 333 334 335 336 338 338 336 335 335 335 335 335 336 337 338 339 340 338 336 333 331 329 330 332 332 329 326 325 326 326 325 324 324 323 321 319 320 321 321 321 320 319 319 318 314 310 309 309 307 304 300 298 298 296 292 286 280 272 263 252 241 230 222 216 209 205 202
248 258 265 270 276 282 290 300 309 317 323 327 328 329 329 328 328 329 330 331 332 334 337 338 336 335 338 341 342 340 338 338 339 339 339 339 338 337 335 333 333 335 335 333 330 329 328 326 324 323 323 321 319 319 320 321 320 319 318 318 317 316 315 313 312 310 307 304 301 300 300 296 289 281 274 266 255 244 235 226 216 210 204 199 195
251 256 260 264 270 279 290 302 314 322 325 327 327 327 327 327 327 327 327 327 329 331 335 338 339 339 340 342 344 344 344 343 343 343 342 341 341 340 338 335 335 337 337 334 331 329 328 326 325 323 320 318 318 320 320 319 318 319 318 317 316 316 315 314 312 309 306 304 303 303 301 293 285 278 271 260 247 235 227 221 214 207 202 198 193
247 250 254 261 269 281 296 308 318 322 322 323 323 322 323 324 324 325 327 328 329 331 333 336 339 342 343 342 342 343 345 345 346 347 347 346 345 343 339 337 338 340 338 335 331 328 327 325 322 319 317 318 319 320 319 318 320 321 320 318 317 316 316 315 312 309 307 306 306 305 299 290 282 276 268 256 243 231 223 217 212 207 202 198 194
244 248 253 262 273 287 302 310 315 316 316 316 317 319 321 323 324 326 329 331 332 332 332 334 337 340 343 345 344 343 343 344 346 348 350 350 348 345 342 340 339 338 336 335 333 329 326 323 319 317 318 321 322 323 323 323 324 325 323 321 320 318 318 317 314 312 311 310 308 304 296 287 280 272 261 248 237 229 221 214 208 204 201 198 193
244 248 255 266 278 290 300 305 307 308 310 312 315 318 321 323 325 329 331 332 333 334 335 336 337 338 340 343 345 345 344 345 346 348 351 351 350 348 344 341 339 337 335 335 334 330 326 324 322 322 324 326 326 327 328 329 328 326 325 324 323 322 321 321 320 319 316 312 307 301 294 287 278 266 254 239 227 220 215 211 205 200 197 195 190
244 250 258 268 279 287 293 297 300 303 308 313 316 319 321 324 327 330 332 333 335 336 337 340 342 342 341 342 343 344 345 345 346 348 350 351 352 350 347 343 341 339 337 336 334 331 328 328 328 329 330 331 331 331 332 331 330 328 327 327 327 327 327 327 327 324 319 313 306 299 291 282 270 257 245 233 223 217 211 208 204 198 192 190 186
245 253 260 266 275 281 285 291 298 303 309 313 316 318 322 326 329 331 332 334 336 338 340 342 344 344 344 343 344 344 346 348 348 348 348 350 351 350 348 346 344 343 341 338 337 335 333 333 333 334 336 338 337 336 335 335 334 334 332 331 331 331 332 332 329 323 318 313 306 296 285 273 260 247 236 227 220 216 211 205 202 197 190 184 178
248 254 260 263 269 276 282 290 297 303 309 313 315 319 324 326 329 332 334 335 336 338 340 342 342 344 345 346 347 348 349 349 350 349 348 348 349 349 349 348 346 345 344 342 340 339 338 337 338 340 342 344 343 342 341 340 339 338 336 335 335 334 334 333 329 322 317 311 303 291 277 265 253 239 228 221 216 215 211 202 195 191 185 177 172
248 253 257 261 267 274 281 290 297 302 308 312 316 320 324 327 329 332 333 334 335 336 338 339 340 342 344 346 349 351 350 349 350 350 349 348 348 348 349 350 349 348 347 346 345 344 342 342 343 345 347 348 348 347 345 343 341 340 339 339 338 336 335 335 331 324 317 309 298 286 272 260 248 235 223 215 211 210 205 194 186 182 176 172 170
246 250 254 259 266 273 281 289 296 303 308 313 316 320 323 327 329 330 330 331 333 333 334 335 336 339 343 345 347 348 349 350 351 351 350 349 349 349 350 351 352 352 353 353 352 351 350 349 350 351 351 352 351 348 346 343 342 341 341 341 340 338 337 337 334 327 320 310 297 284 270 255 243 232 220 213 210 204 193 184 179 176 172 169 169
244 248 253 258 265 273 281 289 296 303 307 311 315 319 322 324 325 326 327 328 330 330 330 331 333 335 339 342 343 345 347 349 351 352 351 350 350 350 351 352 353 355 356 357 357 356 356 355 355 354 353 352 351 347 345 343 343 343 342 342 343 342 340 339 337 331 322 312 298 284 269 253 240 228 217 212 205 194 185 181 178 172 167 166 168
242 246 252 258 264 272 281 288 295 300 305 309 313 316 319 321 322 323 324 325 326 326 327 328 329 331 333 337 339 341 344 346 349 351 351 352 351 352 352 353 353 353 354 355 355 356 356 356 355 354 353 351 349 346 344 344 344 344 344 345 347 347 345 343 340 334 325 314 302 287 271 255 240 226 215 208 199 189 184 181 176 168 167 170 173
241 245 250 256 264 272 280 288 294 299 303 307 311 314 316 317 318 320 321 321 322 323 324 324 325 327 328 331 334 337 340 343 346 348 350 351 352 352 353 354 354 353 352 352 352 353 355 356 356 355 354 353 351 349 346 345 346 348 350 351 351 351 351 349 346 340 331 321 308 292 277 258 239 225 213 201 193 188 182 175 170 168 172 176 177
239 243 248 255 263 272 280 287 293 297 301 305 307 310 313 314 315 317 318 319 320 321 322 323 323 323 324 327 330 333 336 339 342 345 347 349 350 351 352 354 355 355 354 353 352 352 354 356 357 358 358 357 356 355 353 350 351 357 2 2 1 1 2 2 1 357 347 335 321 303 285 262 237 222 205 189 182 179 173 168 168 173 177 178 177
239 242 247 254 262 270 279 284 290 295 299 301 305 308 310 312 314 316 317 319 320 321 322 323 323 323 323 324 326 329 332 336 339 342 344 346 348 349 350 351 354 355 356 355 354 354 355 357 358 359 358 357 358 359 359 357 358 4 9 11 14 18 19 18 18 18 13 0 344 323 296 263 218 193 183 177 173 170 167 167 172 178 180 179 179
238 242 247 253 260 268 275 281 287 292 295 298 303 307 309 312 315 317 318 320 322 323 323 325 326 326 325 325 325 327 329 332 335 338 341 343 345 347 347 348 350 351 353 355 355 354 354 355 359 2 2 359 357 358 359 0 4 11 14 16 20 26 30 28 26 26 26 21 12 357 316 230 182 171 168 165 162 163 168 174 178 181 182 182 182
238 242 247 254 261 267 273 279 284 288 292 297 301 306 309 312 315 317 318 320 322 324 325 327 329 329 328 328 328 328 328 329 331 333 336 339 341 343 344 345 346 348 349 351 353 353 353 353 356 2 6 4 360 358 357 360 7 15 20 22 25 28 32 33 32 30 29 26 21 14 360 188 165 154 151 151 157 166 176 182 183 183 184 185 187
237 240 246 253 260 266 273 278 282 287 292 297 301 305 309 312 314 316 318 319 321 323 324 325 327 328 328 329 329 330 331 331 330 330 332 334 336 338 340 341 343 345 346 348 350 352 353 353 353 357 3 6 4 1 359 1 8 15 19 22 28 34 36 37 38 39 40 41 39 38 51 112 142 144 148 159 171 179 183 185 186 187 189 191 194
236 240 246 253 260 267 272 278 283 288 293 297 301 305 307 310 312 314 316 317 318 320 321 321 322 323 324 324 326 327 329 331 331 331 331 332 332 334 335 337 338 340 342 344 346 348 351 353 354 354 356 0 3 2 0 2 8 14 14 14 20 30 36 37 38 40 47 58 64 69 78 105 140 157 165 174 182 186 188 191 193 195 197 200 202